www.pogodaiklimat.ru

Погода и климат >> Архив погоды >> Россия >> Магаданская область >> Сусуман


ПОГОДА в Сусумане

  • Прогноз погоды в Сусумане
  • Монитор погоды в Сусумане
  • Климат города

АРХИВ ПОГОДЫ в Сусумане

Время (UTC), дата Ветер
(напр.,м/с)
 
Видим.   Явления Облачность Т
(С)
Тd
(С)
f
(%)
Тe
(С)
Тes
(С)
Комфортность P
(гПа)
Po
(гПа)
Тmin
(С)
Tmax
(С)
R
(мм)
R24
(мм)
S
(см)
21 12.10 штиль 0 50 км 3/0
[Ci fib]
-25.5 -27.9 80 -26 -26 1020.7 933.2 -25.7 <0.5
00 13.10 штиль 0 50 км 6/3 1000 м
[Sc Ci fib]
-17.9 -20.3 81 -18 -17 1017.2 932.5
03 13.10 ЮЗ 2 50 км 9/3 1000 м
[Sc Ac trans Ci fib]
-9.2 -16.5 55 -13 -13 1012.7 931.0
06 13.10 С 2 50 км 10/3 1000 м
[Sc Ac trans Cs]
-8.7 -18.7 44 -13 -13 1011.8 930.3
09 13.10 ЮВ 1 50 км 10/0
[Ac trans Cs]
-12.5 -17.8 65 -15 -15 1013.3 930.5 -8.1
12 13.10 Ю 1 50 км 10/0
[Ac trans Cs]
-13.1 -16.8 74 -15 -15 1013.6 930.7
15 13.10 Ю 2 н/о н/о -13.8 -16.6 79 -19 -19 1013.6 930.4
18 13.10 ЮЗ 1 50 км 10/0
[Ac trans Cs]
-13.9 -16.2 83 -16 -16 1014.2 931.0
21 13.10 Ю 1 50 км 10/3 1000 м
[Sc Ac trans Cs]
-15.4 -17.7 82 -18 -18 1015.0 931.2 -15.6 <0.5
00 14.10 Ю 2 50 км 9/1 1000 м
[Sc Ac trans Cs]
-9.8 -16.0 60 -14 -14 1013.1 931.2
03 14.10 ЮЗ 2 50 км 4/0
[Ac trans Ci fib]
-5.5 -16.3 42 -9 -8 1010.5 930.0
06 14.10 С 3 50 км 9/0
[Ac trans Cs]
-6.2 -16.4 44 -11 -11 1010.4 929.7
09 14.10 В 3 50 км 9/0
[Ac trans Cs]
-13.8 -17.5 74 -20 -20 1013.8 930.6 -4.8
12 14.10 В 1 50 км 9/0
[Ac trans Cs]
-17.9 -19.7 86 -21 -21 1015.9 931.3
15 14.10 ЮЗ 1 50 км 9/0
[Cs]
-19.6 -21.2 87 -23 -23 1017.2 931.9
18 14.10 ЮЗ 2 50 км 9/0
[Cs]
-18.2 -20.2 84 -24 -24 1017.3 932.4
21 14.10 ЮЗ 1 50 км 9/0
[Ac As]
-17.2 -19.3 84 -20 -20 1017.7 933.1 -20.2 <0.5
00 15.10 штиль 0 50 км 9/1 1000 м
[Sc Ac As]
-13.8 -16.9 77 -14 -13 1016.8 933.4
03 15.10 Ю 1 50 км 4/3 1000 м
[Sc Ac trans]
-7.6 -16.1 51 -10 -8 1013.7 932.4
06 15.10 Ю 1 50 км 1/1 1000 м
[Sc]
-7.2 -16.0 49 -9 -9 1013.2 932.0
09 15.10 Ю 2 50 км 1/1 1000 м
[Sc]
-15.3 -18.1 79 -20 -20 1016.4 932.5 -6.3
12 15.10 Ю 1 50 км 1/1 1000 м
[Sc]
-18.9 -20.6 86 -22 -22 1018.0 932.9
15 15.10 штиль 0 50 км ясно -19.4 -21.2 86 -19 -19 1018.1 932.8
18 15.10 В 1 50 км ясно -21.3 -23.6 82 -24 -24 1018.8 932.8
21 15.10 штиль 0 50 км 9/3 1000 м
[Sc Ac As]
-18.2 -20.3 84 -18 -18 1017.5 932.7 -22.2 <0.5
00 16.10 Ю 1 50 км 9/3 1000 м
[Sc Ac As Cs]
-12.9 -15.8 79 -15 -15 1015.4 932.4
03 16.10 ЮЗ 1 20 км слабый снег 10/0
[Ac As Cs]
-9.2 -14.0 68 -11 -11 1013.5 931.8
06 16.10 Ю 1 50 км {снег} 9/0
[Ac As Cs]
-7.6 -12.8 66 -10 -10 1013.0 931.7
09 16.10 ЮЗ 1 20 км слабый снег 10/0
[Ac As]
-8.6 -9.9 90 -11 -11 1013.9 932.3 -7.3 0.0
12 16.10 ЮЗ 1 20 км слабый снег 10/0
[Ac As]
-8.9 -9.8 93 -11 -11 1014.2 932.5
15 16.10 штиль 0 10 км слабый снег 10/0
[As op]
-9.0 -10.0 92 -10 -10 1014.8 933.0
18 16.10 штиль 0 10 км слабый снег 10/0
[As op]
-9.6 -10.6 92 -10 -10 1015.6 933.6
21 16.10 штиль 0 50 км {снег} 9/4 1000 м
[Sc Ac As]
-9.1 -10.1 92 -10 -10 1016.1 934.2 -9.8 2 2
00 17.10 Ю 1 50 км {снег} 9/9 1380 м
[Cb cap]
-4.2 -7.8 76 -6 -6 1015.9 935.4
03 17.10 С 7-11
{12}
50 км {метель} 10/10 960 м
[Cb cap]
-3.2 -9.0 64 -11 -11 1016.9 936.6
06 17.10 СВ 6-11
{12}
50 км {метель} 9/9 1300 м
[Sc]
-4.1 -11.2 58 -11 -11 1019.2 938.4
09 17.10 СВ 5
{12}
50 км 10/10 1380 м
[Sc]
-5.4 -11.7 61 -12 -12 1021.7 940.4 -2.4
12 17.10 СВ 5
{11}
50 км 10/10 1350 м
[Sc]
-6.1 -12.5 60 -13 -13 1022.9 941.3
15 17.10 СВ 1 50 км 10/10 1260 м
[Sc]
-8.0 -13.4 65 -10 -10 1024.5 942.2
18 17.10 С 2 50 км 9/9 1020 м
[Sc]
-12.8 -15.2 82 -17 -17 1026.7 942.8
21 17.10 З 1 50 км 9/4 1000 м
[Sc Ci fib]
-16.0 -17.5 88 -19 -19 1028.9 943.8 -16.0 2
00 18.10 ЮЗ 1 50 км 4/1 1000 м
[Sc Ac trans Ci fib]
-10.4 -14.5 72 -13 -12 1027.7 944.4 -16.4
03 18.10 СВ 4 50 км 8/4 1000 м
[Sc Ac trans]
-5.7 -14.0 52 -12 -11 1025.9 944.2
06 18.10 В 3 50 км 9/1 1000 м
[Sc Ci sp]
-6.7 -14.3 55 -12 -12 1026.9 944.7
09 18.10 С 3 50 км 9/3 1000 м
[Sc Ac trans Ci fib]
-12.3 -15.6 76 -18 -18 1029.5 945.5 -5.1
12 18.10 штиль 0 50 км 9/3 1000 м
[Sc Ac trans Ci fib]
-16.1 -18.3 83 -16 -16 1031.6 946.3
15 18.10 штиль 0 50 км 8/3 1000 м
[Sc Ac trans Ci fib]
-21.0 -22.7 86 -21 -21 1033.6 946.5
18 18.10 В 1 50 км 6/3 1000 м
[Sc Ac trans Ci fib]
-20.5 -22.6 83 -24 -24 1033.5 946.5
21 18.10 штиль 0 50 км 9/9 960 м
[Sc]
-19.1 -21.0 85 -19 -19 1033.1 946.6 -22.2 2
00 19.10 СВ 1 50 км 9/9 1000 м
[Sc Ac trans]
-13.6 -16.0 82 -16 -16 1031.0 946.5
03 19.10 СЗ 1 50 км 9/9 1000 м
[]
-9.2 -14.6 65 -11 -11 1028.8 945.8
06 19.10 В 1 50 км 9/9 840 м
[Sc]
-9.3 -14.5 66 -11 -11 1028.6 945.6
09 19.10 В 1 50 км 10/10 840 м
[Sc]
-10.0 -14.8 68 -12 -12 1029.3 946.0 -8.7
12 19.10 ЮВ 1 50 км 10/10 840 м
[Sc]
-10.3 -15.2 67 -12 -12 1030.0 946.6
15 19.10 СВ 1 50 км 10/10 840 м
[Sc]
-11.0 -14.8 73 -13 -13 1030.6 946.9

 

Местоположение метеостанции Сусуман (Магаданская область, Россия): широта 62.78 долгота 148.10 высота над уровнем моря 655 м.

В архиве по умолчанию представлена погода в Сусумане за последнюю неделю. Архивные данные за месяц целиком и за предыдущие месяцы, начиная с января 2011 года, Вы можете получить, выбрав интересующий диапазон дат из раскрывающегося списка и нажав кнопку "Ввод!".

Внимание! Время в таблицах - всемирное. Для получения местного времени необходимо прибавить поправку, которая в Сусумане равна 11 ч.

Смотрите также архив погоды в соседних городах и на ближайших метеорологических станциях:

Погода в Ягодной (Магаданская область, Россия) (82 км)
Погода в Озере Джека Лондона (Магаданская область, Россия) (106 км)
Погода в Колымской (Магаданская область, Россия) (107 км)
Погода в Совхозе Эльген (Магаданская область, Россия) (127 км)
Погода в Усть-Бохапче (Магаданская область, Россия) (149 км)
Погода в Делянкире (Якутия, Россия) (171 км)
Погода в Усть-Омчуге (Магаданская область, Россия) (201 км)
Погода в Среднекане (Магаданская область, Россия) (218 км)
Погода в Сеймчане (Магаданская область, Россия) (219 км)
Погода в Оймяконе (Якутия, Россия) (258 км)

Пояснения к столбцам:

Ветер - указаны скорость ветра в м/с - средняя за 10 мин, порывы в срок и между сроками (в фигурных скобках) и направление, откуда дует ветер: С - северный, СВ - северо-восточный, В - восточный, ЮВ - юго-восточный, Ю - южный, ЮЗ - юго-западный, З - западный, СЗ - северо-западный.
Видимость - горизонтальная дальность видимости в метрах или километрах. При видимости от 1 до 10 км при отсутствии осадков обычно наблюдается дымка, при ухудшении видимости до 1 км и менее - туман. В сухую погоду видимость может ухудшаться дымом, пылью или мглою.
Явления - указаны атмосферные явления, наблюдавшиеся в срок или в последний час перед сроком; фигурными скобками обозначены явления, наблюдавшиеся между сроками (за 1-3 часа до срока); квадратными скобками обозначены град или гололедные отложения с указанием их диаметра в мм.
Облачность - указаны через наклонную черту общая и нижняя облачность в баллах и высота нижней границы облаков в метрах; квадратными скобками обозначены формы облаков: Ci - перистые, Cs - перисто-слоистые, Cc - перисто-кучевые, Ac - высококучевые, As - высокослоистые, Sc - слоисто-кучевые, Ns - слоисто-дождевые, Cu - кучевые, Cb - кучево-дождевые. Подробнее классификацию облаков см. в Атласе облаков (PDF).
T - Температура воздуха - температура, измеренная на высоте 2 м над землей.
Td - Температура точки росы - температура, при понижении до которой содержащийся в воздухе водяной пар достигнет насыщения.
f - Относительная влажность воздуха - влажноcть воздуха, измеренная на высоте 2 м над землей.
Te - Эффективная температура - температура, которую ощущает одетый по сезону человек в тени. Характеристика душности погоды. При расчете учитывается влияние влажности воздуха и скорости ветра на теплоощущения человека.
Tes - Эффективная температура на солнце - температура, которую ощущает человек, с поправкой на солнечный нагрев. Характеристика знойности погоды. Зависит от высоты солнца над горизонтом, облачности и скорости ветра. Ночью, в пасмурную погоду, а также при ветре 12 м/с и более поправка равна нулю.
P - Атмосферное давление - приведенное к уровню моря атмосферное давление.
Po - Атмосферное давление - измеренное на уровне метеостанции атмосферное давление.
Tmin - Минимальная температура - минимум температуры воздуха на высоте 2 м над землей.
Tmax - Максимальная температура - максимум температуры воздуха на высоте 2 м над землей.
R - Количество осадков - Количество выпавших осадков за период времени, мм. При наведении курсора мыши на число - период времени, за который выпало указанное количество осадков.
R24 - Количество осадков - Количество выпавших осадков за 24 часа, мм.
S - Снежный покров - Высота снежного покрова, см. При наведении курсора мыши на число - состояние снежного покрова и степень покрытия местности в баллах.